This is the latest recevied weather packets stored in our database for station/object EA7OC-10. If no packets are shown the sender has not sent any weather packets the latest 10 day(s).
| Time | Temp. | Humidity | Pressure | Rain* | Wind** | Luminosity | Snow |
|---|---|---|---|---|---|---|---|
| 1787435550 | 27.22° C | 30% | 1015.2 hPa | - | - | - | - |
| 1787434650 | 27.78° C | 30% | 1015.1 hPa | - | - | - | - |
| 1787433750 | 27.78° C | 29% | 1014.9 hPa | - | - | - | - |
| 1787432850 | 28.33° C | 29% | 1015.1 hPa | - | - | - | - |
| 1787431950 | 28.89° C | 29% | 1015 hPa | - | - | - | - |
| 1787431050 | 28.89° C | 29% | 1014.9 hPa | - | - | - | - |
| 1787430150 | 29.44° C | 29% | 1014.9 hPa | - | - | - | - |
| 1787429249 | 29.44° C | 29% | 1014.7 hPa | - | - | - | - |
| 1787428349 | 30° C | 28% | 1014.5 hPa | - | - | - | - |
| 1787427449 | 30.56° C | 28% | 1014.3 hPa | - | - | - | - |
| 1787426549 | 31.11° C | 28% | 1014.1 hPa | - | - | - | - |
| 1787425649 | 31.67° C | 28% | 1013.8 hPa | - | - | - | - |
| 1787424748 | 32.22° C | 27% | 1013.6 hPa | - | - | - | - |
| 1787423847 | 34.44° C | 27% | 1013.3 hPa | - | - | - | - |
| 1787422947 | 36.11° C | 26% | 1013.6 hPa | - | - | - | - |
| 1787422047 | 37.22° C | 27% | 1013.6 hPa | - | - | - | - |
| 1787421147 | 38.33° C | 27% | 1013.6 hPa | - | - | - | - |
| 1787420247 | 38.33° C | 27% | 1013.6 hPa | - | - | - | - |
| 1787419347 | 38.89° C | 27% | 1013.6 hPa | - | - | - | - |
| 1787418447 | 39.44° C | 27% | 1013.6 hPa | - | - | - | - |
| 1787417546 | 39.44° C | 27% | 1013.6 hPa | - | - | - | - |
| 1787416646 | 40° C | 27% | 1013.7 hPa | - | - | - | - |
| 1787415746 | 40° C | 27% | 1013.6 hPa | - | - | - | - |
| 1787414846 | 40° C | 27% | 1013.6 hPa | - | - | - | - |
| 1787413946 | 40° C | 28% | 1013.6 hPa | - | - | - | - |
* Rain since midnight (hover to see other rain measurements)
** Current wind speed in m/s (hover to see current wind gust speed)